Location: Newark
(42.7133°N, 87.7910°W)
Time: 07:20:37
(UTC+00:00)

Vanguard 1 - Pass Details

Date: 25 October 2019
Orbit: 652 x 3831 km, 34.2° (Epoch: 21 November)

Event Time Altitude Azimuth Distance (km) Brightness Sun altitude
Rises 02:20:25 0° 264° (W) 4,167 14.0 -37.9°
Reaches altitude 10° 02:22:46 10° 259° (W) 3,479 13.4 -38.3°
Enters shadow 02:31:05 54° 195° (SSW) 2,353 11.7 -39.7°
